Location: Barrio Pajares
(40.5500°N, 4.1667°W)
Time: 09:49:20
(UTC+00:00)

Milstar 3 - Pass Details

Date: 18 April 2024
Orbit: 1098 x 5147 km, 28.2° (Epoch: 27 May)

Event Time Altitude Azimuth Distance (km) Brightness Sun altitude
Rises 19:49:07 0° 239° (WSW) 4,263 6.4 -9.7°
Reaches altitude 10° 19:51:42 10° 231° (SW) 3,513 5.8 -10.2°
Maximum altitude 19:59:59 42° 163° (SSE) 2,616 4.4 -11.6°
Enters shadow 20:13:04 13° 101° (E) 5,677 5.8 -13.8°
